Theta_e
290 290 290 290 290 289 289 289 290 290 290 290 288 288 288 287 284 281 280 284 283 285 289 288 289 292 292 292 293 292 292 293 293 291 290 289 289 293 297 299 301 303 305 307 310 312 315 319 319 319 319 319 320 319 319 317 317 317 317 317 316 315 314 313 313 313 313 312 312 312 312 311 311 310
290 290 290 290 290 290 289 289 289 289 289 288 288 288 288 288 286 284 283 284 286 285 287 290 288 290 291 292 292 292 292 294 294 290 289 289 289 294 296 298 299 301 303 304 306 309 311 314 317 318 318 319 320 318 318 319 320 318 318 317 316 314 313 313 313 313 313 313 311 311 311 311 310 310
291 290 290 290 290 290 289 289 288 289 289 289 288 288 288 288 287 286 285 283 286 289 287 287 289 291 291 292 292 292 292 292 293 290 289 289 291 293 293 296 298 300 301 302 303 305 307 309 312 314 317 318 318 318 321 320 318 316 318 317 316 314 313 312 312 313 312 311 311 311 311 311 310 310
292 291 290 290 290 290 289 289 289 289 289 289 288 288 288 287 287 287 286 284 285 287 287 287 288 289 290 291 290 290 291 292 295 290 290 290 292 291 290 293 296 298 299 300 301 302 304 305 307 309 311 314 316 317 318 320 319 320 318 315 313 312 312 312 311 311 311 310 310 310 310 311 311 310
292 291 291 291 291 291 290 290 290 289 289 289 289 288 287 287 287 287 286 285 285 287 288 289 289 289 289 289 290 290 290 290 291 292 289 289 289 289 289 289 293 296 297 299 299 300 301 302 303 305 306 307 309 311 313 313 313 314 312 312 311 311 312 312 311 311 311 310 310 310 310 310 310 310
292 292 291 291 291 291 290 290 290 290 289 289 288 288 288 288 287 288 287 286 285 285 286 287 288 288 289 290 289 290 289 289 289 289 288 289 288 289 289 288 289 294 296 297 299 299 300 300 300 301 301 303 304 304 305 305 306 307 308 307 307 310 311 311 312 311 310 310 311 310 310 309 309 309
292 291 291 291 291 292 290 290 291 290 290 289 289 289 289 288 288 288 288 287 285 285 286 288 287 287 288 288 289 289 290 290 290 289 288 288 289 289 289 289 289 292 295 297 298 298 299 299 300 300 300 300 300 300 301 301 302 303 304 305 306 305 306 307 308 309 309 309 309 309 309 309 309 309
292 291 291 291 292 291 290 290 290 291 290 290 289 289 289 289 288 288 288 288 287 286 286 286 287 288 288 288 288 289 290 289 289 289 290 289 289 289 290 289 289 291 294 296 297 298 299 299 299 299 300 300 300 299 298 298 299 299 301 302 303 304 304 304 305 306 307 307 307 306 306 307 308 309
292 292 292 292 292 291 291 291 290 291 290 290 290 289 289 289 289 289 289 288 288 286 286 287 287 287 287 288 288 288 288 288 288 288 289 289 289 289 290 290 290 292 293 294 295 296 297 297 298 299 299 299 299 298 298 297 296 296 297 298 299 301 302 303 303 303 303 304 304 304 304 304 305 307
293 293 293 293 292 292 291 291 291 291 290 290 290 289 289 289 289 289 288 288 288 287 287 286 287 286 287 286 286 287 288 288 287 286 287 287 288 288 288 289 290 291 291 290 291 294 295 296 297 297 298 298 298 298 297 297 296 295 295 296 296 298 299 300 301 301 302 302 302 302 301 301 302 302
293 293 293 293 293 292 292 292 292 291 291 291 290 290 290 290 289 288 288 288 287 287 286 287 287 287 287 287 287 287 287 287 288 287 285 285 287 287 288 288 289 290 291 292 292 291 291 292 293 295 297 297 297 297 297 296 295 295 295 296 296 297 297 298 298 299 299 300 301 301 301 301 300 300
293 294 294 293 294 293 293 293 293 292 292 291 291 291 290 290 289 288 288 287 287 286 286 286 286 286 286 285 287 285 285 285 285 286 287 285 286 286 287 288 288 288 289 289 289 291 292 292 292 294 295 296 296 296 296 296 295 295 295 296 296 297 297 297 297 297 297 297 298 299 300 300 300 300
293 293 293 293 294 294 293 292 293 293 293 293 291 291 291 290 289 289 288 288 287 286 286 286 286 286 285 285 285 284 284 285 286 286 286 286 286 287 285 285 287 288 287 288 288 288 289 289 288 289 289 290 293 294 295 294 294 295 296 296 296 296 297 297 297 297 297 297 297 297 297 298 299 299
293 293 293 294 292 291 291 291 291 292 292 292 293 293 292 291 290 289 288 288 287 287 286 286 286 285 285 286 285 285 286 287 286 285 284 284 286 284 284 285 285 287 287 286 285 287 289 288 288 287 287 288 289 289 291 291 292 293 296 297 296 296 296 296 297 297 297 297 296 296 296 297 297 298
292 293 293 293 292 291 291 291 291 292 292 292 292 292 293 292 292 290 289 289 288 287 287 287 286 286 286 286 286 286 287 286 286 286 286 285 285 284 283 283 285 286 287 285 285 285 287 288 286 286 287 288 288 288 289 292 293 294 295 296 296 296 296 296 296 296 296 296 296 296 296 296 297 297
292 292 293 293 294 293 293 293 292 291 291 292 292 292 292 292 292 293 292 290 289 288 287 287 287 287 286 287 287 286 286 286 286 286 286 285 285 284 283 284 284 285 288 286 285 285 286 287 286 286 287 287 288 288 290 293 294 295 295 296 295 295 296 296 296 296 296 296 296 296 296 296 296 297
292 292 292 292 293 294 291 291 292 292 292 291 291 291 291 291 292 293 293 293 292 292 289 289 288 288 288 287 287 288 288 288 286 286 285 285 285 285 285 285 286 283 286 285 284 284 284 285 285 285 287 287 287 288 291 292 294 295 296 296 295 295 295 295 296 296 296 296 296 296 296 296 296 297
291 291 291 291 291 292 293 293 292 292 292 292 291 290 290 290 290 291 292 292 291 292 292 291 289 290 290 289 290 290 289 288 286 286 285 286 285 285 285 287 287 285 286 285 284 283 283 284 285 285 286 287 287 287 290 293 294 294 294 294 295 295 295 295 295 295 295 296 296 296 296 296 296 296
291 291 291 291 291 291 292 293 292 292 292 291 291 290 289 289 289 290 290 291 292 292 292 292 291 292 292 291 291 291 290 290 290 289 288 288 287 287 287 286 285 284 285 286 284 283 285 282 284 285 285 286 285 286 290 293 294 294 294 294 294 295 295 295 295 295 295 295 295 295 295 295 295 295
291 291 291 291 291 291 291 291 292 292 292 292 290 290 290 289 289 289 290 291 292 292 292 292 292 292 293 293 292 292 291 290 290 290 289 286 285 285 284 284 285 285 284 286 285 284 285 283 284 285 284 284 284 285 285 290 293 294 295 295 295 295 295 295 295 295 295 295 295 295 295 295 295 295
290 290 290 291 291 291 291 291 292 293 292 291 291 290 290 290 290 290 290 291 291 291 292 292 293 293 293 294 294 294 294 291 290 287 286 285 285 284 283 284 284 284 284 284 286 286 284 283 283 284 283 283 284 284 284 286 292 294 294 295 295 295 295 295 295 295 294 295 295 295 295 295 295 294
289 290 289 289 290 290 290 291 292 293 291 291 291 290 289 289 289 290 291 289 289 290 291 291 291 291 292 292 293 293 293 293 291 287 286 287 286 285 285 284 284 285 283 284 286 284 284 284 283 283 283 281 283 284 284 285 286 291 293 294 294 294 294 294 294 294 294 294 294 295 295 295 294 292
288 288 288 288 288 289 290 291 292 292 291 290 290 290 289 289 289 290 291 290 289 288 287 288 288 288 289 289 290 290 291 292 291 290 288 288 286 285 285 285 284 283 283 285 287 284 284 284 285 284 279 281 283 283 283 284 284 285 287 289 291 293 293 293 294 294 294 294 294 295 294 294 294 288
288 288 288 289 290 291 292 292 292 292 292 291 291 290 289 288 288 291 290 290 290 290 289 288 288 287 288 288 288 288 288 289 289 290 289 288 287 286 286 286 285 283 285 285 287 285 286 285 283 284 284 281 277 278 283 283 283 284 285 286 287 290 292 292 292 294 294 294 294 294 294 293 293 287
287 287 288 288 289 291 291 291 292 292 292 292 291 291 290 290 291 291 290 289 288 289 289 289 289 288 288 287 288 287 287 287 288 289 289 289 288 287 286 286 285 285 287 286 288 286 284 284 283 282 283 283 283 278 279 282 283 283 284 285 285 286 288 289 289 289 293 294 294 294 293 293 293 290
287 288 288 288 289 290 290 290 291 292 292 292 291 290 291 292 292 290 290 290 289 289 288 288 288 288 288 287 287 287 287 287 287 288 288 289 289 289 289 288 287 286 286 288 289 287 286 284 284 282 282 281 281 283 279 277 278 282 282 283 285 285 287 287 287 286 286 288 289 291 291 293 292 293
288 288 288 288 288 289 289 290 291 291 291 290 290 291 292 291 291 290 289 289 288 288 288 288 287 288 288 288 287 287 287 287 287 287 288 288 289 289 289 289 289 289 290 288 288 288 287 285 285 283 282 283 282 281 281 280 277 278 280 281 283 284 285 286 285 284 283 284 284 290 292 292 292 292
288 288 288 288 289 289 289 290 290 290 290 289 290 291 291 290 289 289 289 288 288 288 288 287 287 287 288 288 288 288 288 288 288 287 288 288 288 288 288 289 288 288 289 287 287 288 287 286 285 285 285 283 282 281 280 283 279 279 280 280 281 281 282 284 284 283 282 282 282 285 284 285 287 288
288 288 289 289 289 288 289 289 289 289 288 289 289 289 289 288 288 288 288 288 288 287 287 287 287 287 288 289 289 289 289 288 288 287 287 287 288 288 288 288 288 288 288 288 287 287 287 287 286 286 285 285 284 284 284 282 281 279 280 278 275 275 278 281 282 281 280 281 281 281 282 281 280 281
288 288 288 288 288 287 287 287 287 287 287 287 287 287 287 287 287 287 287 287 287 286 287 287 287 288 289 289 289 289 289 288 287 287 286 286 286 286 286 286 286 287 287 288 288 287 287 287 287 286 286 285 285 284 285 283 282 281 281 280 280 276 276 278 279 279 279 279 278 277 275 277 278 278
286 287 286 287 287 287 286 286 286 286 287 287 287 287 287 287 287 287 287 287 287 286 287 287 287 288 289 289 288 288 288 288 288 288 287 286 286 286 286 285 285 285 287 287 287 287 287 287 287 287 285 285 285 285 285 285 284 282 280 281 279 278 277 276 277 277 278 276 274 273 272 273 273 274
285 285 285 286 286 286 286 286 286 286 287 287 287 287 287 287 287 287 287 287 287 287 288 288 288 288 288 288 288 288 288 288 288 288 287 286 286 286 286 284 283 285 285 286 286 286 285 287 286 287 286 286 285 285 286 285 285 284 280 281 280 280 276 276 276 276 276 273 271 270 271 272 271 271
283 284 283 283 284 284 284 285 285 285 286 286 287 287 287 287 287 287 286 286 286 286 287 286 287 287 287 287 287 287 287 287 288 288 287 287 286 286 286 284 284 284 284 284 283 284 284 285 285 287 287 287 287 286 284 283 284 285 281 279 279 276 274 276 276 274 273 273 272 270 268 269 270 270
280 278 279 279 281 282 283 284 284 285 285 286 286 286 286 287 287 286 287 286 286 287 286 286 286 286 287 286 287 287 286 287 287 288 287 286 287 286 285 284 284 285 285 285 283 281 280 281 278 274 274 272 271 279 285 284 283 284 282 280 278 276 274 274 275 274 274 274 272 268 267 267 268 269
276 276 277 279 281 282 283 283 284 285 285 285 285 286 286 286 286 286 286 286 287 286 286 286 286 286 286 286 286 286 286 286 287 287 287 287 286 286 285 284 284 285 285 285 284 281 278 275 276 276 274 274 275 275 273 277 284 281 279 278 278 276 272 272 272 272 273 272 272 270 267 266 266 267
276 277 278 278 280 282 282 283 284 285 285 285 285 285 285 286 286 286 286 287 287 286 286 286 286 286 286 286 286 286 286 286 286 286 286 286 286 285 286 285 285 285 285 285 285 281 276 275 276 276 275 274 275 276 277 277 277 281 277 275 275 274 271 271 271 271 271 271 272 271 268 266 265 266
276 277 279 280 282 283 282 283 284 284 285 285 285 286 285 285 286 287 287 287 287 286 287 286 286 286 286 286 286 286 286 286 285 286 286 286 286 285 285 284 284 285 285 285 286 279 275 275 276 277 276 275 274 275 277 268 271 275 278 276 272 272 269 269 268 268 270 270 270 271 270 268 265 265
277 278 278 278 277 278 279 279 280 282 284 285 285 285 285 286 286 287 287 287 286 286 287 286 286 286 286 286 286 285 286 286 286 286 286 286 285 285 285 284 284 284 285 285 284 277 275 275 275 277 278 276 275 275 275 266 266 271 275 277 272 269 269 268 267 266 266 268 269 268 268 267 265 265
271 272 273 275 276 278 279 280 281 281 281 282 283 283 284 284 285 285 286 286 286 286 286 286 286 286 286 286 286 286 285 285 285 285 285 285 286 285 285 284 284 285 284 283 282 276 274 275 275 276 278 277 277 277 279 270 266 268 271 275 272 269 268 269 267 267 266 265 264 264 264 266 267 270
270 271 271 271 273 275 276 276 277 276 277 277 278 278 277 276 277 279 281 284 285 286 286 286 286 286 286 286 286 286 285 285 285 285 285 285 285 285 285 285 284 284 283 282 277 274 274 274 275 276 278 280 273 268 268 265 264 266 268 272 274 271 269 269 267 266 265 265 264 263 262 264 263 263
268 269 269 270 269 269 269 269 269 270 271 272 272 273 274 275 275 276 276 276 276 276 278 281 284 286 286 286 286 285 284 285 285 285 285 285 285 285 284 282 284 284 282 280 277 275 273 276 275 273 270 265 267 269 268 265 261 262 262 266 270 272 272 271 268 267 264 264 264 263 261 261 260 260
264 264 265 266 265 265 265 265 267 268 269 269 270 271 271 272 273 275 275 275 275 275 276 277 278 281 284 286 286 285 285 284 285 285 285 285 285 284 283 283 283 282 281 279 276 276 272 266 267 268 269 269 269 270 268 265 259 258 258 259 263 270 271 271 271 269 266 265 263 261 260 259 260 258
262 261 261 262 261 261 262 263 264 266 268 269 269 270 271 272 272 272 272 272 273 273 274 275 275 275 276 278 282 285 285 285 285 285 285 284 284 284 283 283 283 282 281 280 271 264 262 268 268 268 269 270 271 272 265 261 259 257 256 256 257 259 266 271 271 270 269 269 268 265 262 260 259 256
259 259 258 258 259 259 260 262 264 263 262 262 264 265 266 267 268 269 270 270 271 271 272 272 273 274 274 276 277 278 279 283 285 285 284 284 284 284 284 282 280 281 275 264 261 263 264 265 268 269 268 269 269 266 261 259 256 256 256 256 257 258 256 258 262 266 267 268 268 268 268 267 266 266
257 257 257 257 257 259 260 260 258 258 260 261 263 265 266 266 267 268 269 269 269 269 270 271 271 272 273 274 274 275 276 279 282 284 284 284 284 283 282 282 277 270 265 264 262 261 263 264 265 266 266 265 265 264 261 258 257 255 255 255 255 256 257 258 258 257 257 258 264 266 267 267 267 267
Wind_Speed
8 8 8 9 8 8 7 6 6 7 6 7 7 7 8 7 7 6 6 9 5 3 7 4 4 9 8 8 7 7 7 9 9 6 7 7 7 9 14 16 16 17 17 17 18 19 20 23 26 26 25 24 21 22 24 24 26 26 26 26 27 25 22 21 21 20 20 22 23 24 23 18 20 20
8 8 8 8 8 8 7 8 8 7 8 7 7 7 7 7 9 7 9 12 6 6 4 6 5 4 8 7 6 6 8 10 11 7 7 7 8 11 14 15 17 17 18 17 18 19 20 21 23 25 26 26 25 25 24 25 28 29 28 27 28 26 22 19 19 19 18 20 21 20 19 21 21 21
8 9 10 9 10 8 9 8 8 8 8 8 7 7 7 7 8 8 7 10 6 7 9 6 5 5 7 7 7 6 7 9 11 8 8 8 11 14 11 15 16 17 18 18 17 18 19 21 22 23 25 27 26 27 25 25 27 28 28 28 25 21 17 17 19 19 19 19 18 19 21 22 22 22
8 10 11 11 10 8 7 8 8 9 8 8 8 8 8 8 8 8 8 11 17 5 6 6 5 5 6 7 7 8 6 8 13 8 8 10 12 9 8 13 17 17 18 18 18 18 19 20 21 23 23 25 27 28 27 26 26 23 21 22 23 21 18 20 22 23 23 22 22 22 23 23 23 23
9 10 11 11 11 8 9 9 9 9 10 8 8 8 8 9 8 9 10 12 16 11 7 8 8 6 4 5 8 9 8 7 7 8 8 8 7 8 8 8 13 17 17 18 19 20 20 19 20 21 22 23 24 24 25 25 25 24 20 21 21 22 22 23 24 23 23 24 23 23 23 24 24 24
10 10 11 12 11 9 11 10 10 10 9 9 9 9 9 10 10 10 10 12 11 18 5 7 6 8 6 11 6 10 9 9 6 9 9 7 8 8 8 8 8 16 18 18 20 21 20 19 19 19 20 21 21 21 20 19 17 15 13 10 9 17 23 20 16 17 21 22 21 22 23 23 23 24
10 10 11 13 11 8 10 12 11 10 11 10 11 12 10 12 11 10 12 10 13 15 15 7 7 8 7 11 10 8 9 9 9 10 10 9 8 8 9 9 8 13 18 20 19 21 21 20 20 19 19 19 19 19 19 18 17 16 16 15 11 7 9 12 14 16 17 15 15 16 18 20 23 23
10 12 12 13 11 10 11 12 11 11 10 11 11 12 11 11 12 11 10 13 12 11 13 8 9 7 9 9 8 8 8 9 9 10 9 8 10 10 10 11 10 12 19 20 20 21 19 20 20 20 19 19 19 21 21 21 20 19 19 18 15 14 13 11 10 11 13 15 16 17 18 18 18 21
12 12 13 13 11 10 12 12 12 11 13 12 11 12 12 11 11 9 10 12 11 12 13 13 8 7 8 8 8 8 8 8 9 7 10 9 10 11 11 9 10 14 19 20 21 21 21 22 22 21 19 19 21 21 21 21 21 21 21 20 19 18 17 15 13 13 13 13 15 16 17 19 19 20
12 13 14 14 12 12 13 14 13 12 14 12 12 14 13 12 10 11 11 11 12 12 14 12 13 7 9 7 8 7 8 10 9 8 8 6 9 10 9 10 9 8 9 9 11 15 17 20 23 23 23 23 23 23 22 21 21 21 21 22 21 20 19 19 17 16 16 15 15 14 14 15 16 17
12 13 13 14 13 14 14 14 14 13 13 12 14 15 14 12 11 12 12 11 12 12 13 12 13 11 9 9 11 7 7 8 10 11 8 10 10 8 11 11 9 7 10 13 17 14 12 15 15 19 24 23 24 24 23 22 22 21 22 22 22 21 21 20 20 19 19 19 18 17 17 16 16 16
13 13 14 14 14 15 15 15 14 14 13 12 13 14 12 12 13 13 12 11 12 12 12 13 12 10 11 8 9 4 5 9 10 10 11 14 12 11 10 12 11 8 9 10 9 11 14 15 17 21 21 23 24 24 22 23 22 23 22 22 22 22 22 22 22 22 22 21 20 20 20 19 19 18
13 13 13 14 14 16 18 21 19 17 16 12 14 14 12 13 13 13 12 12 12 12 12 13 10 11 11 11 9 8 10 14 16 9 8 13 12 10 8 10 9 11 10 10 9 10 11 11 11 10 10 13 20 20 23 19 24 23 21 21 23 23 24 24 23 23 23 22 22 22 22 22 22 22
13 14 13 14 19 21 21 22 23 23 23 23 19 15 12 14 13 14 14 13 13 12 14 14 12 13 14 13 12 13 13 12 8 8 9 13 13 7 10 9 9 9 11 9 10 12 10 11 11 10 12 12 13 12 13 14 15 16 19 19 24 24 24 24 24 24 23 23 23 23 23 24 24 24
14 13 14 13 15 17 19 20 24 24 25 26 26 27 23 18 16 14 15 15 14 14 15 14 13 14 16 15 12 13 13 10 12 12 11 12 9 10 10 13 7 9 11 10 11 12 10 10 12 11 12 13 11 12 13 17 21 19 19 21 25 26 25 25 25 24 24 24 24 24 24 25 25 25
13 14 14 12 10 11 14 15 16 20 24 26 26 27 26 25 24 22 19 17 14 15 15 15 16 14 16 15 12 12 11 13 11 12 11 12 12 12 12 12 13 4 12 11 11 14 7 9 11 12 13 12 11 13 16 18 20 21 21 21 24 27 26 26 26 25 25 24 24 24 25 25 25 25
14 13 13 13 11 11 17 16 15 15 16 20 25 26 26 26 27 27 28 26 20 14 16 17 17 17 15 15 14 14 14 11 12 10 11 12 12 13 13 14 13 6 11 9 11 13 7 10 12 13 14 10 11 13 17 22 20 19 20 21 25 26 25 26 26 25 25 24 25 25 25 24 24 24
14 14 13 13 13 12 13 13 13 14 15 14 14 16 17 18 22 26 29 28 29 24 18 17 19 19 13 17 15 14 13 12 14 13 14 12 13 14 17 16 13 6 8 12 7 9 9 9 9 14 12 9 11 10 13 19 22 24 25 24 24 25 26 26 25 25 25 25 25 25 24 23 23 23
14 14 13 14 16 15 13 13 13 14 14 13 14 15 15 16 17 18 20 21 19 19 19 20 21 20 16 18 17 12 12 17 16 15 16 15 15 13 9 8 8 7 8 9 7 14 8 7 11 14 11 9 10 9 11 19 23 24 24 24 24 25 25 25 24 24 25 25 25 24 23 22 22 21
12 12 13 14 16 16 15 17 19 19 14 13 16 16 16 15 15 17 20 22 23 22 20 20 22 20 20 19 17 15 14 13 12 10 8 5 6 7 10 14 9 11 7 10 11 11 12 7 11 13 7 7 10 9 10 15 24 23 23 24 24 24 24 24 23 24 24 24 23 22 22 21 21 20
11 11 12 13 14 15 16 17 18 20 17 15 18 17 17 16 15 17 14 18 26 28 29 30 31 31 28 25 24 22 22 16 11 8 8 13 9 10 13 14 11 12 7 9 12 12 13 8 10 10 5 8 10 9 10 10 17 24 23 24 24 24 23 23 23 22 21 22 21 21 21 20 19 19
11 12 17 17 15 16 17 17 18 19 16 15 18 16 17 18 19 19 13 7 15 26 28 31 33 32 30 28 28 26 24 22 15 13 17 14 10 15 14 15 13 9 8 11 11 10 17 6 8 9 5 4 7 9 10 10 11 19 22 26 25 24 24 23 22 21 21 21 21 18 17 18 17 12
9 11 11 16 17 16 18 22 20 21 18 16 17 16 15 19 21 20 12 11 15 11 12 18 21 22 26 24 21 22 28 26 22 18 17 11 13 16 15 14 10 9 12 11 14 14 14 10 10 8 4 9 8 7 9 10 11 11 11 13 16 22 23 23 22 21 22 21 19 16 18 17 14 7
11 9 10 12 15 19 21 21 21 21 22 18 17 16 16 18 23 17 10 14 14 13 15 16 15 18 18 18 18 18 18 19 21 20 17 15 15 16 16 14 14 15 13 7 18 15 10 8 10 10 12 9 7 4 9 9 10 10 10 10 10 15 20 21 19 23 19 18 18 18 19 19 16 7
12 12 10 9 12 17 19 20 20 20 20 20 17 17 17 18 19 17 14 15 18 15 16 15 14 14 14 15 15 16 17 17 16 17 19 18 17 17 16 15 15 16 16 9 20 13 12 10 10 7 10 9 9 2 4 8 8 9 10 11 11 9 9 11 8 10 13 18 19 20 19 19 21 13
12 12 12 11 13 17 20 21 21 22 21 22 16 17 22 25 26 21 16 15 14 13 13 13 14 14 15 14 14 15 15 16 16 17 18 20 20 19 17 18 18 17 18 13 24 16 12 10 13 11 9 10 11 9 5 4 5 8 7 9 10 9 9 9 9 8 8 8 9 11 14 22 19 21
15 12 13 14 18 19 20 22 23 23 24 21 18 23 25 25 26 22 15 15 15 14 14 14 16 17 16 15 16 15 15 15 15 15 17 18 18 19 19 20 19 19 15 8 17 15 14 12 9 14 13 11 11 7 10 9 5 4 6 7 8 8 9 8 9 9 8 8 7 13 16 17 20 17
16 15 15 17 25 27 27 26 25 25 24 19 23 25 26 26 23 16 14 14 15 15 15 16 17 18 17 16 15 16 14 13 13 14 15 16 18 19 19 20 21 19 15 10 13 15 15 14 10 12 14 12 13 12 11 8 5 7 10 6 6 7 8 8 8 8 7 7 7 7 7 8 8 9
16 21 30 31 30 28 27 27 26 22 23 26 25 26 27 26 16 16 15 15 14 15 17 17 18 18 18 17 16 14 12 11 11 12 13 14 15 17 17 16 16 17 15 13 12 13 14 15 14 11 11 12 14 13 10 10 8 8 9 9 5 5 7 7 8 8 7 7 7 7 8 8 7 7
28 28 29 32 31 28 24 18 15 14 16 21 24 25 25 17 15 15 15 15 16 17 18 18 19 18 16 15 14 13 12 12 14 13 13 13 15 14 15 14 16 16 16 16 15 15 14 14 15 13 13 13 14 13 11 9 8 8 10 12 7 3 3 5 7 7 9 8 7 7 5 5 7 8
18 22 24 24 29 28 33 30 25 22 22 20 17 14 14 14 14 15 15 16 17 17 17 18 17 17 16 13 12 14 14 14 14 13 13 13 15 14 14 15 16 16 16 16 16 17 16 16 15 15 16 15 13 15 13 11 11 10 11 11 12 13 8 7 6 7 8 7 6 5 5 5 4 3
18 20 24 27 22 20 19 19 16 15 14 14 13 13 13 13 13 17 20 20 17 17 17 17 15 15 14 15 15 15 14 15 15 13 13 14 16 14 12 13 17 17 15 14 15 17 18 17 16 15 17 16 17 15 11 13 14 12 11 12 11 7 9 13 10 8 8 9 8 7 5 5 6 5
19 17 19 18 20 19 19 18 18 17 16 16 15 15 14 12 12 12 12 14 16 17 16 16 16 17 15 16 15 15 14 15 16 13 14 15 16 14 14 17 18 16 16 15 14 15 15 16 17 17 16 15 15 13 12 14 14 12 13 12 11 9 7 9 11 11 9 9 9 8 7 4 3 4
18 18 17 18 18 18 18 18 17 18 17 16 16 15 15 14 12 12 13 14 15 15 15 15 16 16 16 16 15 15 16 16 15 15 16 15 15 15 16 17 18 17 16 15 14 14 13 13 9 1 0 1 2 7 13 16 14 12 12 12 13 12 9 9 9 12 14 13 12 11 8 5 3 3
17 17 17 16 17 17 17 17 16 17 17 17 16 16 15 14 14 14 14 14 13 14 14 15 16 16 16 16 16 16 16 16 15 13 14 15 15 16 17 18 18 18 17 16 14 12 12 12 11 10 5 3 4 5 5 7 13 12 9 11 12 12 11 10 10 11 10 7 9 11 7 4 4 4
17 16 17 17 16 16 17 17 17 16 17 17 17 16 16 15 14 14 14 14 14 14 15 16 16 15 16 16 16 16 16 16 15 15 15 15 16 17 16 18 19 19 17 16 16 11 12 13 14 15 15 13 13 13 15 11 8 9 14 12 10 10 10 11 10 10 11 9 10 11 11 9 7 6
16 15 16 14 13 12 14 15 15 17 17 17 16 16 16 16 15 14 15 15 15 15 16 16 16 15 16 16 16 16 16 16 16 16 16 15 15 16 16 17 19 19 18 17 15 11 12 14 15 16 16 15 15 19 17 5 5 6 10 14 10 11 13 11 11 11 8 10 10 9 9 9 8 7
15 15 15 16 17 18 18 19 19 19 17 15 14 17 18 18 17 17 15 15 14 14 15 16 16 16 16 15 15 15 16 16 16 16 16 15 15 15 17 18 18 17 18 15 13 12 14 14 16 17 17 18 18 18 16 3 1 6 9 8 14 12 12 13 12 13 9 5 6 4 5 8 8 8
16 18 17 17 16 14 17 14 17 17 19 17 18 17 18 17 17 17 18 18 17 16 15 16 16 16 16 16 16 16 16 15 15 16 16 16 16 16 16 17 17 16 15 14 11 11 13 14 16 18 18 17 20 21 19 12 9 3 2 4 9 13 12 14 13 10 11 10 8 8 7 8 11 15
16 16 18 18 18 16 16 17 17 19 20 19 19 19 19 20 19 19 20 19 18 19 19 17 17 17 16 16 16 16 17 19 19 17 17 17 16 17 16 16 17 16 14 13 11 12 15 17 18 19 19 15 4 9 11 11 7 5 5 5 11 10 12 11 13 13 10 9 11 12 10 10 8 5
19 15 14 15 16 15 18 19 19 18 19 18 19 18 15 15 16 14 15 17 18 18 18 19 19 19 16 16 16 16 17 16 17 18 18 17 17 16 18 17 15 14 14 13 14 14 17 17 11 10 13 16 16 14 13 11 9 7 7 5 8 9 9 8 12 14 12 12 11 12 10 9 9 6
18 17 14 12 16 15 17 17 16 14 18 17 18 19 19 19 19 23 20 20 18 18 16 16 16 19 18 16 15 15 17 17 17 17 17 17 17 17 18 16 15 13 14 15 16 15 6 10 14 14 13 12 12 14 13 14 17 15 9 6 5 10 15 15 13 12 13 15 15 12 8 7 6 6
19 21 22 21 22 20 19 20 20 17 16 15 16 16 17 16 14 15 13 15 14 15 15 16 15 15 16 17 18 18 17 16 17 18 18 17 17 17 15 14 15 14 15 13 5 10 13 10 11 12 12 12 11 11 13 13 14 15 13 13 9 7 9 18 21 22 18 14 11 9 5 7 11 10
19 19 18 21 21 21 22 20 18 19 21 20 23 22 21 18 17 18 15 15 14 14 13 15 15 15 17 16 15 16 19 20 18 17 17 17 16 16 15 14 14 13 9 10 13 10 7 9 10 12 14 13 10 11 15 16 11 10 16 14 10 15 14 9 11 15 16 17 18 17 18 14 10 9
15 16 17 18 18 18 16 18 22 23 22 23 20 16 17 17 18 18 15 15 15 16 16 16 16 17 17 16 16 17 17 20 21 18 17 16 15 14 15 15 10 10 11 12 13 10 9 9 7 6 6 6 6 11 14 19 18 16 15 18 16 11 9 10 13 12 10 8 10 14 15 16 18 20
Wind_Direction
221 225 226 226 235 235 233 236 229 227 223 219 215 203 214 198 234 274 280 258 244 270 210 228 253 210 211 214 213 206 211 216 210 212 215 220 226 231 232 237 241 244 247 248 250 251 253 257 256 252 247 242 239 236 233 230 227 225 225 228 229 233 233 228 232 232 227 221 224 228 232 229 232 234
216 221 224 224 233 229 223 228 227 224 220 220 217 217 213 192 217 228 249 273 183 257 243 210 244 217 214 211 213 202 215 216 206 205 209 217 224 227 228 234 239 243 244 245 247 248 249 252 256 260 256 249 244 240 238 236 236 232 229 232 235 236 236 231 229 230 229 231 231 233 231 232 234 233
217 224 227 224 231 223 224 225 226 225 220 221 217 222 210 215 215 220 224 266 260 183 250 245 229 204 215 206 208 208 213 215 208 207 211 217 223 227 232 233 237 240 243 244 243 245 247 247 248 251 258 260 254 249 246 241 238 237 235 238 239 243 242 233 230 230 231 233 231 230 234 236 236 235
219 225 230 227 228 223 219 224 224 225 222 216 218 216 213 221 214 207 226 237 262 202 228 239 248 225 217 212 206 218 220 219 208 209 213 218 220 225 231 234 232 235 238 240 241 242 243 245 246 248 250 253 258 255 252 254 252 246 247 250 247 246 237 235 232 229 229 231 233 233 234 236 236 236
226 227 232 233 230 219 219 224 223 224 223 220 222 216 216 223 214 208 222 238 260 261 215 242 245 241 215 242 207 216 216 217 216 214 218 215 216 220 225 229 232 231 232 234 235 238 240 241 244 247 248 250 253 256 259 259 258 257 248 250 247 237 239 235 235 232 231 232 234 235 237 237 236 236
231 230 233 237 232 221 226 225 225 221 222 220 221 222 215 223 222 209 218 237 242 266 235 238 236 246 216 252 191 209 213 224 211 218 220 219 214 217 221 226 230 229 229 231 230 233 234 235 237 241 245 248 250 253 255 257 262 263 263 264 275 243 230 237 237 235 240 239 233 232 236 238 238 238
232 235 235 238 231 224 228 230 230 225 226 221 222 226 218 224 224 217 216 226 242 251 261 227 236 229 228 227 235 218 219 218 204 215 219 217 218 221 220 225 228 227 227 228 226 229 229 230 231 232 235 237 242 246 248 252 253 253 254 252 233 238 232 227 229 226 222 223 228 231 235 237 239 240
231 233 237 239 231 226 229 231 229 228 227 226 226 227 225 222 226 222 218 223 234 246 264 241 226 221 230 238 239 227 220 219 220 218 224 212 219 221 221 224 227 227 228 229 228 227 224 224 225 228 229 230 233 238 240 242 244 245 247 246 243 232 223 214 215 214 218 224 226 227 229 236 239 240
233 235 236 240 232 227 232 235 231 226 225 226 226 229 227 224 224 224 221 227 227 241 246 259 240 229 230 236 233 216 220 234 236 229 226 217 218 223 224 223 226 228 227 231 232 232 231 229 229 224 224 226 231 235 236 237 238 239 239 240 238 233 231 225 214 212 213 218 223 225 224 221 223 228
233 235 237 239 234 230 229 235 234 229 228 225 226 229 229 225 223 225 228 226 230 233 243 247 261 227 236 243 238 219 213 223 238 244 242 242 233 226 232 229 226 219 220 223 233 235 234 234 233 231 229 228 230 233 233 234 235 235 235 236 236 233 230 228 226 221 216 214 216 216 216 218 218 220
236 236 238 238 233 233 232 235 234 232 229 227 227 226 227 222 222 224 227 226 228 230 239 245 245 253 237 230 245 226 217 224 224 234 241 247 237 227 224 237 227 218 225 226 226 225 224 230 234 235 233 230 231 231 232 232 232 232 233 233 234 233 231 230 228 226 223 220 217 215 214 214 215 216
241 239 239 238 235 233 233 233 235 230 233 226 233 229 224 219 219 223 224 226 226 230 234 237 242 237 245 238 246 224 208 238 246 228 227 240 241 230 224 228 228 223 219 225 228 229 233 237 237 239 238 235 234 232 233 233 232 231 231 232 233 232 230 227 226 226 226 225 222 220 218 217 216 217
244 244 241 240 238 234 235 232 232 230 225 226 233 231 219 220 217 221 222 224 223 231 232 241 235 243 239 237 231 225 218 222 229 223 216 242 243 241 235 239 225 224 217 227 220 222 216 226 227 227 230 232 233 234 231 233 232 230 229 228 230 231 230 228 226 225 225 225 224 224 224 223 222 221
247 246 244 243 238 238 237 236 236 235 232 230 229 232 217 219 217 219 220 221 221 224 229 232 227 233 237 233 222 227 226 231 241 234 215 233 242 241 249 256 231 214 216 220 224 227 213 216 227 219 230 232 224 228 226 229 226 226 224 221 228 230 230 229 228 227 225 224 223 223 224 225 225 226
255 254 249 249 245 242 242 241 239 237 237 236 235 235 230 221 215 219 221 225 217 220 228 230 225 230 238 235 222 224 231 221 221 224 223 232 235 229 234 248 252 205 199 215 227 237 213 207 222 219 227 228 218 220 225 223 224 222 217 220 225 229 230 229 229 228 226 225 223 223 224 225 225 226
255 257 257 253 250 244 241 242 242 242 241 241 240 239 237 234 227 222 220 223 223 222 229 232 227 225 232 236 220 224 219 225 221 222 222 223 223 231 231 239 243 209 183 210 219 242 201 203 221 226 230 224 217 219 221 218 221 220 219 218 223 228 229 229 229 228 228 226 225 224 225 225 225 226
257 257 258 260 253 251 246 242 242 244 245 242 242 244 242 239 235 233 230 228 228 224 228 233 235 224 227 233 229 213 218 210 220 216 222 223 224 227 231 237 242 224 191 197 224 241 211 191 219 228 233 219 220 222 223 223 220 219 218 220 227 230 230 230 229 229 229 229 228 228 227 226 226 227
257 256 259 262 259 254 251 247 244 244 244 245 242 241 238 239 239 237 237 234 232 231 232 234 238 236 212 232 231 216 206 203 215 211 222 216 222 224 228 231 235 220 172 199 208 249 225 196 214 232 232 212 225 216 215 217 222 224 225 226 227 230 231 231 230 230 230 231 232 231 231 231 230 231
260 262 261 261 263 263 257 254 247 248 248 247 248 245 241 236 237 234 233 232 232 232 233 237 241 243 229 232 235 222 208 213 216 211 216 212 217 228 247 268 243 230 203 198 185 242 230 172 216 235 223 216 223 217 218 217 221 224 224 225 226 228 230 230 229 229 229 231 232 233 233 234 234 234
261 261 259 261 264 264 264 261 256 255 258 258 255 252 250 246 240 237 233 229 231 233 234 235 239 241 237 233 232 226 220 221 221 224 230 214 205 215 234 240 231 231 208 195 203 240 246 175 211 239 209 204 224 217 218 219 222 223 223 224 224 226 228 229 229 228 229 230 230 229 231 230 230 231
263 260 257 258 263 264 263 262 260 260 257 259 260 258 258 256 252 249 240 228 234 236 237 241 244 245 246 243 241 236 227 221 210 203 214 222 189 206 231 239 232 236 184 209 203 228 250 204 212 240 203 204 221 217 217 216 219 222 224 224 224 224 226 226 227 227 228 228 226 226 227 227 227 226
266 260 255 254 258 263 265 265 260 260 257 258 261 261 262 264 261 259 249 223 236 234 235 239 243 246 247 246 245 243 238 227 208 201 219 214 183 219 223 234 230 235 198 210 187 214 239 209 208 232 235 224 233 217 217 209 214 220 224 224 223 223 224 225 225 225 224 223 224 218 209 216 222 224
262 268 259 254 254 258 265 266 261 259 255 256 260 260 262 261 262 259 257 244 247 237 231 240 244 248 248 246 243 242 238 230 222 218 224 205 199 218 222 226 233 250 241 208 173 210 236 207 223 190 228 242 238 202 214 204 208 211 215 222 224 222 221 222 222 221 221 222 218 201 209 212 213 203
287 271 271 266 259 261 264 265 263 259 252 252 257 258 256 258 260 266 264 250 251 250 240 240 235 238 240 240 238 240 239 233 227 227 225 217 209 218 223 217 214 224 234 170 174 207 228 195 223 196 209 223 256 232 198 212 205 205 202 208 214 217 216 218 220 219 213 215 207 207 211 214 209 189
292 293 283 277 272 269 269 270 269 265 259 251 252 254 254 253 262 270 266 261 254 253 253 250 245 242 238 236 234 233 232 229 225 224 226 223 217 215 219 217 218 232 232 191 177 196 215 197 213 186 219 222 233 209 241 211 211 202 199 198 207 208 199 210 204 210 210 206 207 209 209 210 211 205
290 286 289 288 280 278 277 277 274 271 268 264 259 256 256 260 262 263 263 264 262 255 253 253 252 249 243 239 234 232 230 227 222 220 221 223 221 220 220 217 217 224 232 190 178 196 200 213 203 192 209 206 240 219 232 237 217 204 195 200 200 193 189 192 192 199 191 198 201 204 207 211 211 210
294 291 289 287 285 281 278 277 276 274 269 266 261 262 263 263 262 263 261 261 260 258 255 253 252 251 248 243 240 234 232 229 222 222 222 223 223 225 227 227 226 229 232 163 188 197 200 218 187 194 206 204 219 216 221 217 241 186 197 199 197 191 190 180 190 189 184 182 185 196 203 209 210 205
296 299 295 292 291 290 287 283 279 277 273 266 263 262 262 263 265 263 261 257 255 255 254 252 251 251 249 247 244 241 235 231 223 222 223 223 222 225 229 230 231 233 231 196 193 199 203 211 201 204 200 198 210 213 221 219 186 179 194 195 193 189 182 186 183 174 171 164 164 174 160 177 184 179
295 293 294 294 292 290 287 284 281 278 272 268 264 262 261 261 259 257 254 254 252 250 248 248 250 251 250 246 246 247 242 232 225 222 224 224 225 227 231 234 235 235 232 221 211 207 207 209 211 198 201 207 213 219 209 213 181 195 180 158 204 204 185 182 170 165 166 166 160 161 170 163 166 162
292 293 294 294 294 293 290 287 282 277 274 268 263 259 255 253 249 246 248 247 246 246 247 247 246 248 251 248 245 243 239 231 226 221 221 220 226 220 223 228 233 232 228 221 217 214 211 212 212 202 205 212 213 219 211 195 202 189 180 188 169 74 236 167 167 163 157 163 161 153 144 155 162 157
299 297 296 294 292 291 290 288 282 277 275 274 269 262 253 248 244 243 241 241 243 244 246 247 247 249 249 252 247 239 233 232 232 222 220 221 227 217 217 221 231 233 227 220 218 216 213 212 211 202 208 213 211 217 211 199 210 186 193 185 164 188 174 165 159 162 157 139 129 125 126 135 140 153
297 295 292 291 290 291 290 288 289 284 278 269 267 263 258 251 244 242 241 242 243 244 244 247 250 251 248 244 241 241 235 234 234 223 217 218 226 218 209 216 228 229 227 217 218 216 215 213 211 209 211 208 209 211 199 205 211 198 191 189 193 181 143 174 170 164 153 137 129 151 160 156 159 155
293 291 290 286 287 285 285 285 281 280 279 278 273 268 264 258 252 246 242 242 241 242 243 244 243 246 244 245 243 242 239 235 234 221 222 219 224 218 209 217 224 223 221 217 211 211 209 214 212 212 214 215 216 204 194 207 214 200 186 189 184 181 176 176 169 161 145 147 162 155 150 143 142 149
294 291 285 282 282 280 280 280 279 279 276 276 276 273 269 265 259 253 248 244 248 245 245 243 243 244 243 245 242 240 239 240 235 224 216 221 218 220 214 220 225 226 222 219 211 206 203 205 196 213 332 54 14 212 205 206 210 198 191 180 181 183 176 165 168 163 169 176 159 135 131 135 140 140
283 281 276 275 276 275 272 272 273 274 276 274 275 274 274 269 263 259 255 253 249 249 248 246 245 245 244 244 241 240 239 239 237 233 221 221 218 219 218 221 225 224 221 218 214 201 186 184 182 185 154 146 197 279 282 238 204 197 178 182 185 174 167 170 158 166 168 151 155 160 132 108 151 163
282 276 277 275 271 271 270 271 275 276 275 273 271 272 271 269 266 262 260 257 253 250 248 249 247 245 244 245 243 242 241 238 239 233 227 217 219 220 220 222 225 226 221 218 217 190 177 185 181 186 193 194 202 211 231 212 208 197 177 185 178 168 156 157 160 158 161 165 168 159 165 169 166 157
277 271 272 272 280 284 290 291 290 288 284 281 276 270 270 271 270 265 261 256 255 252 250 248 248 244 243 245 247 245 242 239 238 234 233 224 218 217 219 223 225 226 224 220 212 179 173 184 189 190 195 197 200 213 216 73 233 258 204 176 169 165 157 152 152 159 170 158 163 174 171 156 158 156
315 314 311 309 304 295 288 285 281 278 278 281 284 284 278 271 268 266 264 261 258 256 253 250 247 245 245 243 245 245 245 241 239 237 235 230 223 217 217 221 224 224 225 220 206 181 180 183 189 195 193 195 201 213 215 170 306 238 248 196 168 166 153 149 155 157 149 135 135 111 107 141 147 143
305 303 300 297 295 295 296 298 300 299 299 295 293 291 293 293 293 289 281 269 263 258 255 252 249 245 245 244 240 243 245 244 241 237 236 233 228 226 220 221 224 225 222 218 196 180 181 189 192 196 195 195 204 208 207 176 183 101 77 209 154 148 166 164 157 147 147 135 109 90 67 95 111 130
308 304 298 296 299 308 314 322 323 327 323 323 321 323 326 321 318 315 309 303 296 285 271 256 248 247 245 242 243 242 241 242 242 242 238 236 232 228 227 221 223 220 219 211 191 193 192 199 193 196 199 194 158 57 83 98 80 50 68 119 155 160 161 156 154 149 142 136 128 120 126 128 117 106
301 311 325 330 329 328 326 323 320 318 315 315 315 312 312 313 312 307 307 309 310 307 303 301 288 266 249 243 241 239 241 240 240 240 240 239 236 230 227 223 226 215 213 209 199 198 203 208 186 131 110 99 123 105 95 105 121 121 95 87 109 127 143 149 151 151 139 141 134 131 131 136 130 126
333 323 322 330 327 325 321 314 311 309 305 303 301 302 301 298 292 299 304 307 310 308 303 301 305 303 292 271 252 240 239 239 239 241 239 239 238 234 228 224 223 211 207 205 204 203 158 86 118 130 139 134 137 153 166 150 137 130 111 82 54 109 114 117 114 115 135 145 142 131 110 88 92 119
334 329 322 325 327 323 319 316 306 299 299 306 308 307 304 302 303 305 304 302 301 302 305 306 307 307 304 302 295 283 263 243 239 240 240 237 235 234 230 220 220 210 208 203 154 111 134 144 135 142 153 161 173 166 152 147 135 125 123 104 88 47 97 113 116 117 113 102 88 95 119 139 148 166
324 331 329 320 316 320 317 309 317 326 322 316 309 306 303 301 298 296 293 293 296 296 297 296 296 296 299 301 301 299 298 282 257 243 239 237 232 232 229 223 213 206 177 130 126 140 133 147 159 151 158 172 161 135 137 134 129 123 113 122 112 104 82 70 92 90 86 92 98 99 97 90 85 110
321 314 314 310 302 297 305 321 319 311 306 301 294 289 295 296 293 290 289 291 293 294 294 293 292 292 292 294 296 299 298 299 291 270 249 236 231 227 226 220 195 156 155 156 136 136 144 139 141 130 115 110 125 138 138 141 137 130 124 122 119 120 119 124 119 109 94 69 79 92 106 108 103 107